Location: Colombier
(47.6632°N, 6.2101°E)
Time: 13:46:13
(UTC+00:00)

Daily predictions for brighter satellites

Satellite Brightness Start Highest point End
(mag) Time Altitude Azimuth Time Altitude Azimuth Time Altitude Azimuth
CENTAUR R/B 3.7 19:53:18 10° NW 20:00:55 52° NE 20:09:22 10° ESE
STARLINK-1101 4.1 20:00:36 10° WNW 20:04:37 50° SW 20:08:38 10° SE
MOS 1 Rocket 4.0 20:01:35 10° N 20:05:49 53° WNW 20:09:57 10° SSW
Cosmos 371 Rocket 4.5 20:01:55 10° SW 20:06:39 50° WNW 20:11:24 10° NNE
Okean 1 Rocket 3.3 20:03:04 10° N 20:07:28 58° ENE 20:11:49 10° SSE
ATLAS 3B R/B 4.0 20:02:05 10° NNW 20:08:02 32° NNE 20:14:09 10° E
BREEZE M DEB (TANK) 3.2 20:01:27 10° SW 20:08:37 55° SSE 20:11:18 10° E
CZ-2C R/B 3.1 20:03:33 10° N 20:09:12 76° WNW 20:14:47 10° SSW
STARLINK-1102 4.2 20:05:38 10° WNW 20:09:37 46° SW 20:13:35 10° SE
NOSS 2-2 (D) 3.1 20:07:34 10° SSW 20:11:05 69° SE 20:15:03 10° NE
Aureole 2 Rocket 2.8 20:08:40 10° SW 20:11:40 56° WNW 20:14:32 10° NNE
Cosmos 1331 Rocket 4.0 20:07:45 10° S 20:12:51 65° ESE 20:18:00 10° NNE
STARLINK-1111 4.3 20:10:39 10° WNW 20:14:35 43° SW 20:18:30 10° SSE
SPOT 5 4.2 20:10:10 10° ESE 20:14:46 31° ENE 20:19:25 10° N
STARLINK-52 4.1 20:16:00 10° S 20:18:35 22° SE 20:21:09 10° E
STARLINK-1073 4.5 20:15:38 10° WNW 20:19:31 40° SW 20:23:23 10° SSE
NOSS 3-2 (C) 4.3 20:13:26 10° NW 20:20:47 66° NE 20:29:06 10° SE
SL-4 R/B 2.6 20:16:23 10° SW 20:20:52 47° SE 20:25:31 10° ENE
Cosmos 1943 Rocket 2.4 20:15:34 10° S 20:20:53 49° ESE 20:26:17 10° NE
Terra 3.3 20:19:58 10° ESE 20:23:49 25° ENE 20:27:39 10° N
Nadezhda 4 Rocket 4.0 20:20:02 10° S 20:26:06 69° E 20:32:11 10° NNE
Cosmos 1302 Rocket 4.4 20:21:18 10° S 20:26:20 46° ESE 20:31:22 10° NNE
SPOT 1/Viking Rocket 3.8 20:21:23 10° SSE 20:26:24 55° ENE 20:31:26 10° N
IGS 5A 3.6 20:23:05 10° SSE 20:27:10 61° ENE 20:31:17 10° N
NOSS 2-2 (E) 3.6 20:23:54 10° SW 20:27:28 67° NW 20:31:36 10° NE
Cosmos 304 Rocket 4.4 20:23:19 10° SSW 20:28:03 63° WNW 20:32:50 10° NNE
Resurs 01 Rocket 2.4 20:26:21 10° S 20:30:41 50° W 20:35:03 10° NNW
USA 245 2.2 20:28:14 11° SSE 20:30:43 64° ENE 20:33:03 10° N
FALCON 9 DEB 4.4 20:28:26 10° S 20:31:00 20° SE 20:33:35 10° E
NOSS 3-4 (A) 4.3 20:26:12 10° S 20:31:04 27° ESE 20:36:11 10° ENE
NOSS 3-4 (C) 4.3 20:26:19 10° SSE 20:31:11 27° ESE 20:36:16 10° ENE
ATLAS CENTAUR R/B 2.9 20:28:43 10° SSE 20:31:42 18° ESE 20:34:34 10° ENE
Cosmos 1437 Rocket 3.9 20:29:31 10° SSW 20:33:10 44° WNW 20:36:54 10° N
SL-27 R/B 2.9 20:30:05 10° NNW 20:33:34 49° ENE 20:36:32 13° SE
STARLINK-1235 3.2 20:30:40 10° WNW 20:34:02 71° NNE 20:37:20 10° ESE
Okean 2 4.0 20:30:14 10° SSE 20:34:05 39° E 20:38:00 10° NNE
Cosmos 2082 Rocket 4.3 20:40:36 10° NW 20:44:44 21° W 20:48:52 10° SSW
STARLINK-60 2.8 20:43:50 10° WSW 20:47:00 83° SSE 20:50:11 10° ENE
CZ-4B DEB 4.4 20:47:22 15° SSE 20:50:03 71° ENE 20:53:24 10° N
Cosmos 1242 Rocket 3.6 20:48:44 16° SSE 20:51:05 30° E 20:54:21 10° NNE
Cosmos 1766 3.3 20:47:59 10° N 20:52:00 87° W 20:55:36 13° S
BREEZE-M DEB 2.6 20:49:57 10° SW 20:52:18 52° SSE 20:57:32 10° ENE
Cosmos 2369 Rocket 2.2 20:46:47 10° SSW 20:52:22 63° ESE 20:57:57 10° NNE
NOSS 2-2 (C) 4.3 20:49:41 10° WSW 20:53:10 49° NW 20:57:11 10° NNE
Cosmos 1378 Rocket 4.4 20:49:38 10° SSW 20:53:54 50° WNW 20:58:10 10° N
STARLINK-1206 4.5 20:49:53 10° WNW 20:53:55 48° NNE 20:57:57 10° E
ATLAS 3B CENTAUR R/B 4.4 20:41:08 10° WSW 20:53:58 27° SSW 21:00:02 14° SSE
ATLAS 2AS CENTAUR R/B 3.2 20:51:11 10° S 20:58:46 51° ESE 21:06:23 10° NE
STARLINK-1205 4.4 20:54:52 10° WNW 20:58:55 50° NNE 21:02:57 10° E
NOSS 3-2 (A) 4.3 20:51:58 10° NW 20:59:25 65° WSW 21:06:43 14° SSE
STARLINK-1212 2.8 20:57:20 10° WNW 21:00:28 89° SSW 21:02:33 19° ESE
STARLINK-1105 2.8 20:57:50 10° WNW 21:00:58 88° SSW 21:03:01 19° ESE
STARLINK-1247 2.8 20:58:40 10° WNW 21:01:48 87° SSW 21:03:52 20° ESE
STARLINK-1227 2.8 20:59:10 10° WNW 21:02:17 87° SSW 21:04:18 20° ESE
Cosmos 292 Rocket 3.9 20:58:03 10° S 21:02:47 59° ESE 21:07:34 10° NNE
STARLINK-1226 2.8 21:00:12 10° WNW 21:03:19 85° SW 21:05:20 20° ESE
ERS-1 Rocket 3.0 20:59:14 15° SSE 21:03:30 84° ENE 21:08:35 10° NNW
STARLINK-1218 4.4 20:59:53 10° WNW 21:03:57 52° NNE 21:08:00 10° E
STARLINK-1215 2.8 21:00:56 10° WNW 21:04:05 84° SSW 21:06:03 21° ESE
STARLINK-1229 2.7 21:01:45 10° WNW 21:04:45 83° SSW 21:06:32 22° ESE
STARLINK-1270 2.6 21:02:35 10° WNW 21:05:35 82° SSW 21:07:19 22° ESE
BREEZE-M DEB (TANK) 4.1 20:51:23 10° WNW 21:05:39 65° SW 21:09:24 17° SE
STARLINK-1209 2.9 21:02:35 10° WNW 21:05:40 62° SSW 21:07:22 23° SE
STARLINK-1217 2.8 21:02:48 10° WNW 21:05:56 82° SSW 21:07:50 21° ESE
STARLINK-1189 2.7 21:04:52 10° WNW 21:07:53 79° SSW 21:09:34 23° SE
STARLINK-1254 4.3 21:04:50 10° WNW 21:08:55 54° NNE 21:12:59 10° E
STARLINK-1188 2.7 21:06:16 10° WNW 21:09:18 77° SSW 21:10:59 24° SE
Cosmos 1867 3.7 21:05:24 10° NW 21:10:53 73° NE 21:15:01 18° SE
STARLINK-1191 2.8 21:09:30 10° WNW 21:12:35 73° SSW 21:14:11 25° SE
STARLINK-1221 2.8 21:10:30 10° WNW 21:13:34 71° SSW 21:15:08 26° SE
STARLINK-1444 1.9 21:11:40 10° WSW 21:13:39 71° NNW 21:15:40 10° ENE
STARLINK-1452 1.9 21:11:42 10° WSW 21:13:40 70° NNW 21:15:39 10° ENE
USA 238 DEB 4.3 21:06:46 10° NW 21:13:45 53° WSW 21:19:44 15° SSE
USA 238 4.3 21:06:52 10° NW 21:13:52 54° WSW 21:19:50 16° SSE
STARLINK-1231 4.2 21:09:48 10° WNW 21:13:54 56° NNE 21:17:59 10° E
Cosmos 968 Rocket 3.4 21:08:59 10° NNW 21:14:10 80° ENE 21:17:48 20° SSE
STARLINK-1222 2.8 21:11:31 10° WNW 21:14:36 70° SSW 21:16:07 26° SE
STARLINK-1436 (VISORSAT) 2.0 21:13:27 10° WSW 21:15:25 67° NNW 21:17:24 10° ENE
STARLINK-1450 2.0 21:13:32 10° WSW 21:15:30 67° NNW 21:17:30 10° ENE
STARLINK-1399 2.0 21:13:38 10° WSW 21:15:35 67° NNW 21:17:35 10° ENE
STARLINK-1398 2.0 21:13:38 10° WSW 21:15:35 67° NNW 21:17:36 10° ENE
STARLINK-1392 2.0 21:13:38 10° WSW 21:15:35 67° NNW 21:17:36 10° ENE
STARLINK-1393 2.0 21:13:39 10° WSW 21:15:37 67° NNW 21:17:36 10° ENE
STARLINK-1395 2.0 21:13:39 10° WSW 21:15:37 67° NNW 21:17:36 10° ENE
STARLINK-1394 2.0 21:13:39 10° WSW 21:15:37 67° NNW 21:17:36 10° ENE
STARLINK-1415 2.0 21:13:39 10° WSW 21:15:37 67° NNW 21:17:36 10° ENE
STARLINK-1414 2.0 21:13:39 10° WSW 21:15:37 67° NNW 21:17:37 10° ENE
STARLINK-1416 2.0 21:13:40 10° WSW 21:15:37 67° NNW 21:17:37 10° ENE
STARLINK-1404 2.0 21:13:40 10° WSW 21:15:38 67° NNW 21:17:38 10° ENE
STARLINK-1396 2.0 21:13:40 10° WSW 21:15:38 67° NNW 21:17:37 10° ENE
STARLINK-1397 2.0 21:13:40 10° WSW 21:15:38 67° NNW 21:17:37 10° ENE
STARLINK-1401 2.0 21:13:41 10° WSW 21:15:38 67° NNW 21:17:38 10° ENE
STARLINK-1419 2.0 21:13:41 10° WSW 21:15:39 67° NNW 21:17:38 10° ENE
STARLINK-1408 2.0 21:13:41 10° WSW 21:15:39 67° NNW 21:17:39 10° ENE
STARLINK-1453 2.0 21:13:42 10° WSW 21:15:39 67° NNW 21:17:39 10° ENE
STARLINK-1437 2.0 21:13:42 10° WSW 21:15:39 67° NNW 21:17:39 10° ENE
STARLINK-1417 2.0 21:13:42 10° WSW 21:15:39 67° NNW 21:17:40 10° ENE
STARLINK-1402 2.0 21:13:42 10° WSW 21:15:39 67° NNW 21:17:40 10° ENE
STARLINK-1420 2.0 21:13:43 10° WSW 21:15:41 67° NNW 21:17:40 10° ENE
STARLINK-1413 2.0 21:13:44 10° WSW 21:15:41 67° NNW 21:17:41 10° ENE
STARLINK-1458 2.0 21:13:44 10° WSW 21:15:41 67° NNW 21:17:41 10° ENE
STARLINK-1406 2.0 21:13:44 10° WSW 21:15:42 67° NNW 21:17:41 10° ENE
STARLINK-1460 2.0 21:13:44 10° WSW 21:15:42 67° NNW 21:17:42 10° ENE
STARLINK-1422 2.0 21:13:44 10° WSW 21:15:42 67° NNW 21:17:42 10° ENE
STARLINK-1440 2.0 21:13:45 10° WSW 21:15:42 67° NNW 21:17:43 10° ENE
STARLINK-1445 2.0 21:13:46 10° WSW 21:15:44 67° NNW 21:17:43 10° ENE
STARLINK-1443 2.0 21:13:47 10° WSW 21:15:44 67° NNW 21:17:44 10° ENE
STARLINK-1214 2.8 21:12:40 10° WNW 21:15:45 68° SSW 21:17:14 27° SE
STARLINK-1446 2.0 21:13:47 10° WSW 21:15:45 67° NNW 21:17:45 10° ENE
STARLINK-1454 2.0 21:13:47 10° WSW 21:15:45 67° NNW 21:17:45 10° ENE
STARLINK-1457 2.0 21:13:48 10° WSW 21:15:46 66° NNW 21:17:45 10° ENE
STARLINK-1456 2.0 21:13:48 10° WSW 21:15:46 66° NNW 21:17:46 10° ENE
STARLINK-1451 2.0 21:13:49 10° WSW 21:15:46 66° NNW 21:17:46 10° ENE
STARLINK-1447 2.0 21:13:49 10° WSW 21:15:47 66° NNW 21:17:47 10° ENE
STARLINK-1455 2.0 21:13:50 10° WSW 21:15:47 66° NNW 21:17:47 10° ENE
STARLINK-1441 2.0 21:13:50 10° WSW 21:15:47 66° NNW 21:17:48 10° ENE
STARLINK-1442 2.0 21:13:50 10° WSW 21:15:48 66° NNW 21:17:47 10° ENE
STARLINK-1449 2.0 21:13:50 10° WSW 21:15:48 66° NNW 21:17:48 10° ENE
STARLINK-1448 2.0 21:13:50 10° WSW 21:15:48 66° NNW 21:17:48 10° ENE
STARLINK-1421 2.0 21:13:52 10° WSW 21:15:49 66° NNW 21:17:49 10° ENE
STARLINK-1423 2.0 21:13:52 10° WSW 21:15:49 66° NNW 21:17:49 10° ENE
STARLINK-1405 2.0 21:13:52 10° WSW 21:15:49 66° NNW 21:17:49 10° ENE
STARLINK-1410 2.0 21:13:52 10° WSW 21:15:50 66° NNW 21:17:50 10° ENE
STARLINK-1407 2.0 21:13:52 10° WSW 21:15:50 66° NNW 21:17:50 10° ENE
STARLINK-1400 2.0 21:13:52 10° WSW 21:15:51 66° NNW 21:17:50 10° ENE
STARLINK-1439 2.0 21:13:53 10° WSW 21:15:51 66° NNW 21:17:51 10° ENE
STARLINK-1409 2.0 21:13:54 10° WSW 21:15:52 66° NNW 21:17:51 10° ENE
STARLINK-1351 2.0 21:13:54 10° WSW 21:15:52 66° NNW 21:17:51 10° ENE
STARLINK-1434 2.0 21:13:55 10° WSW 21:15:52 66° NNW 21:17:52 10° ENE
STARLINK-1418 2.0 21:13:55 10° WSW 21:15:52 66° NNW 21:17:52 10° ENE
STARLINK-1370 2.0 21:13:55 10° WSW 21:15:52 66° NNW 21:17:52 10° ENE
STARLINK-1403 2.0 21:13:56 10° WSW 21:15:53 66° NNW 21:17:53 10° ENE
STARLINK-1433 2.0 21:13:56 10° WSW 21:15:54 66° NNW 21:17:54 10° ENE
STARLINK-1411 2.0 21:13:58 10° WSW 21:15:55 66° NNW 21:17:55 10° ENE
STARLINK-1438 2.0 21:13:58 10° WSW 21:15:56 66° NNW 21:17:56 10° ENE
STARLINK-1412 2.0 21:13:58 10° WSW 21:15:56 66° NNW 21:17:56 10° ENE
Cosmos 1092 Rocket 4.1 21:09:50 10° S 21:15:58 81° W 21:22:11 10° N
Cosmos 1975 Rocket 3.2 21:14:18 10° SSW 21:18:43 79° W 21:23:08 10° N
STARLINK-1232 4.1 21:14:50 10° WNW 21:18:56 59° NNE 21:22:48 11° E
STARLINK-29 2.8 21:15:46 10° WSW 21:18:59 79° SSE 21:22:12 10° ENE
STARLINK-1234 3.4 21:16:27 10° WNW 21:19:50 53° SW 21:21:27 27° SSE
Cosmos 1025 Rocket 3.7 21:17:46 21° SE 21:20:03 37° E 21:24:03 10° NNE
STARLINK-1374 4.4 21:19:51 24° SSE 21:20:25 25° SE 21:23:36 10° E
STARLINK-1228 3.4 21:17:21 10° WNW 21:20:50 53° SW 21:22:31 26° SSE
STARLINK-1208 4.0 21:19:47 10° WNW 21:23:54 61° NNE 21:27:32 13° ESE
STARLINK-1339 4.4 21:23:42 25° SSE 21:24:23 26° SE 21:27:38 10° E
COSMOS 2455 3.2 21:21:21 13° S 21:26:16 44° ESE 21:31:57 10° NE
BREEZE-M DEB (TANK) 3.8 21:11:36 10° WSW 21:28:12 87° SSE 21:32:17 10° ENE
Cosmos 1428 Rocket 4.5 21:22:32 11° S 21:28:33 87° E 21:34:51 10° N
STARLINK-1271 3.9 21:24:47 10° WNW 21:28:55 64° NNE 21:32:21 14° ESE
STARLINK-1187 3.3 21:26:40 10° WNW 21:29:47 48° SW 21:30:51 32° SSE
STARLINK-1377 4.2 21:28:58 24° S 21:30:18 30° SE 21:33:46 10° ENE
Cosmos 1470 2.7 21:26:53 10° N 21:30:46 80° E 21:32:50 26° SSE
STARLINK-1154 3.9 21:29:45 10° WNW 21:33:53 68° NNE 21:37:07 16° ESE
STARLINK-1353 4.2 21:32:52 23° S 21:34:25 32° SE 21:37:56 10° ENE
Cosmos 1726 3.1 21:32:14 10° N 21:35:42 34° ENE 21:37:13 24° ESE
Cosmos 1340 Rocket 3.7 21:32:29 10° N 21:36:19 38° ENE 21:38:13 24° SE
STARLINK-1375 4.1 21:35:42 26° S 21:36:57 33° SE 21:40:27 10° ENE
Thor Agena Rocket 4.4 21:33:44 10° NNE 21:38:30 33° E 21:40:49 23° SE
BREEZE-M DEB (TANK) 4.3 21:22:53 10° WNW 21:38:38 77° SSW 21:41:50 20° ESE
STARLINK-1197 3.8 21:34:43 10° WNW 21:38:52 71° NNE 21:41:54 18° ESE
STARLINK-1320 3.4 21:39:32 36° SE 21:39:32 36° SE 21:42:11 10° ENE
STARLINK-1322 3.4 21:39:49 37° SE 21:39:49 37° SE 21:42:29 10° ENE
STARLINK-1324 3.4 21:40:12 37° SE 21:40:12 37° SE 21:42:52 10° ENE
STARLINK-1294 3.4 21:40:31 37° SE 21:40:31 37° SE 21:43:09 10° ENE
STARLINK-1261 3.3 21:40:49 37° SE 21:40:49 37° SE 21:43:31 10° ENE
STARLINK-1325 3.3 21:41:09 38° SE 21:41:09 38° SE 21:43:52 10° ENE
STARLINK-1333 3.3 21:41:30 38° SE 21:41:30 38° SE 21:44:13 10° ENE
STARLINK-1334 3.3 21:41:49 38° SE 21:41:49 38° SE 21:44:34 10° ENE
STARLINK-1326 3.3 21:42:10 39° SE 21:42:10 39° SE 21:44:54 10° ENE
STARLINK-1323 3.3 21:42:27 39° SE 21:42:27 39° SE 21:45:14 10° ENE
STARLINK-1349 3.3 21:42:47 39° SE 21:42:47 39° SE 21:45:34 10° ENE
STARLINK-1350 4.0 21:40:46 22° SSW 21:42:38 36° SE 21:46:17 10° ENE
STARLINK-1336 3.3 21:43:06 40° SE 21:43:06 40° SE 21:45:54 10° ENE
STARLINK-1331 3.2 21:43:26 40° SE 21:43:26 40° SE 21:46:16 10° ENE
Cosmos 1842 4.2 21:39:48 11° SSW 21:43:25 44° WNW 21:47:09 10° N
STARLINK-1344 3.2 21:43:45 40° SE 21:43:45 40° SE 21:46:35 10° ENE
STARLINK-1198 3.7 21:39:43 10° WNW 21:43:52 75° NNE 21:46:42 20° ESE
STARLINK-1343 3.2 21:44:04 41° SE 21:44:04 41° SE 21:46:55 10° ENE
STARLINK-1346 3.2 21:44:17 41° SE 21:44:17 41° SE 21:47:16 10° ENE
STARLINK-1328 3.2 21:44:43 41° SE 21:44:43 41° SE 21:47:35 10° ENE
Lacrosse 4 Rocket 4.4 21:43:59 10° NNE 21:44:52 10° NNE 21:45:44 10° NE
STARLINK-1354 3.2 21:45:05 41° SE 21:45:05 41° SE 21:47:57 10° ENE
STARLINK-1347 3.2 21:45:23 42° SE 21:45:23 42° SE 21:48:16 10° ENE
STARLINK-1357 3.2 21:45:44 42° SE 21:45:44 42° SE 21:48:38 10° ENE
RESURS DK-1 3.4 21:45:05 25° SE 21:45:44 27° ESE 21:49:14 10° NE
STARLINK-1335 3.2 21:46:00 42° SE 21:46:00 42° SE 21:48:55 10° ENE
STARLINK-1327 3.1 21:46:23 43° SE 21:46:23 43° SE 21:49:19 10° ENE
STARLINK-1340 3.1 21:46:43 43° SE 21:46:43 43° SE 21:49:40 10° ENE
Cosmos 1455 Rocket 3.9 21:42:38 10° NNW 21:46:47 45° W 21:49:41 18° SSW
STARLINK-1352 3.9 21:44:45 22° SSW 21:46:50 39° SE 21:50:31 10° ENE
STARLINK-1356 3.1 21:47:02 43° SE 21:47:02 43° SE 21:50:00 10° ENE
STARLINK-1345 3.1 21:47:21 43° SE 21:47:21 43° SE 21:50:20 10° ENE
STARLINK-1355 3.1 21:47:39 44° SE 21:47:39 44° SE 21:50:40 10° ENE
STARLINK-1321 3.1 21:47:59 44° SE 21:47:59 44° SE 21:51:00 10° ENE
STARLINK-1358 3.1 21:48:20 44° SE 21:48:21 44° SE 21:51:22 10° ENE
EXPRESS MD2 4.3 21:44:39 10° W 21:48:24 69° N 21:56:06 10° E
STARLINK-1332 3.1 21:48:38 45° SE 21:48:39 45° SE 21:51:40 10° ENE
Meteor 2-10 4.0 21:43:41 10° N 21:48:44 69° ENE 21:51:31 27° SSE
STARLINK-1199 3.6 21:44:40 10° WNW 21:48:50 80° NNE 21:51:27 22° ESE
STARLINK-1348 3.1 21:48:58 45° SSE 21:49:00 45° SE 21:52:00 10° ENE
STARLINK-1330 3.1 21:49:18 45° SSE 21:49:21 45° SE 21:52:21 10° ENE
STARLINK-1363 3.0 21:49:37 45° SSE 21:49:40 46° SE 21:52:40 10° ENE
STARLINK-1337 3.0 21:49:57 46° SSE 21:50:01 46° SE 21:53:02 10° ENE
STARLINK-1342 3.0 21:50:17 46° SSE 21:50:22 46° SE 21:53:23 10° ENE
Cosmos 1953 2.5 21:46:25 10° N 21:50:22 58° ENE 21:51:59 32° SE
STARLINK-1364 3.0 21:50:37 46° SSE 21:50:42 46° SE 21:53:43 10° ENE
STARLINK-1368 3.8 21:48:47 21° SSW 21:51:01 42° SE 21:54:45 10° ENE
STARLINK-1376 3.0 21:50:56 47° SSE 21:51:02 47° SE 21:54:03 10° ENE
USA 215 4.3 21:45:06 10° E 21:51:15 45° NNE 21:57:23 10° NW
STARLINK-1360 3.0 21:51:14 47° SSE 21:51:23 47° SE 21:54:24 10° ENE
STARLINK-1361 3.0 21:51:36 47° SSE 21:51:43 47° SE 21:54:44 10° ENE
CENTAUR R/B 3.5 21:44:05 10° NW 21:51:58 57° WSW 21:57:56 21° S
STARLINK-1367 3.0 21:51:50 47° SSE 21:52:02 48° SE 21:55:05 10° ENE
STARLINK-1366 3.0 21:52:14 47° SSE 21:52:23 48° SE 21:55:25 10° ENE
S3M 4.0 21:46:17 10° N 21:52:30 76° E 21:56:24 25° SSE
SPOT 5 3.9 21:48:42 16° SSW 21:52:37 45° W 21:57:46 10° NNW
Cosmos 1503 Rocket 4.2 21:48:26 10° NNW 21:53:44 68° WSW 21:56:49 25° S
STARLINK-1210 3.6 21:49:39 10° WNW 21:53:50 84° NNE 21:56:14 24° ESE
STARLINK-52 3.3 21:51:15 10° WSW 21:54:27 66° NNW 21:57:40 10° ENE
STARLINK-1369 3.7 21:52:47 20° SSW 21:55:13 45° SE 21:59:00 10° ENE
Cosmos 1271 Rocket 3.1 21:56:18 21° SSW 21:58:46 63° WNW 22:02:43 10° N
STARLINK-1219 3.5 21:54:39 10° WNW 21:58:50 89° NE 22:01:02 27° ESE
STARLINK-1372 3.6 21:56:47 18° SSW 21:59:26 48° SE 22:03:15 10° ENE
ATLAS 3B R/B 2.7 21:52:40 10° NW 21:59:31 87° SW 22:04:04 24° SE
SL-4 R/B 2.8 21:55:48 10° W 22:00:35 67° NNW 22:05:26 10° ENE
Terra 2.5 21:58:22 20° SSW 22:01:18 46° W 22:05:54 10° NNW
Cosmos 2297 Rocket 3.9 21:56:36 10° N 22:01:20 26° NE 22:06:02 10° ESE
STARLINK-1378 3.6 21:59:49 20° SSW 22:02:13 50° SE 22:06:00 10° ENE
Cosmos 1553 Rocket 4.2 21:57:18 10° NNW 22:03:31 69° W 22:07:36 22° S
STARLINK-1211 3.5 21:59:38 10° WNW 22:03:48 86° SSW 22:05:49 30° ESE
Meteor 2-8 Rocket 4.4 21:57:49 10° N 22:04:01 87° W 22:07:46 26° S
SJ 16-02 3.9 22:02:12 10° NNE 22:04:22 13° NE 22:06:33 10° E
BREEZE-M DEB (TANK) 3.2 21:57:25 10° SW 22:04:36 36° SSE 22:07:37 10° E
Cosmos 1943 Rocket 3.9 21:59:54 10° WSW 22:04:51 32° NW 22:09:53 10° NNE
OE (NEXTSAT) 4.2 22:01:37 10° W 22:05:06 68° S 22:06:36 31° ESE
STARLINK-1379 3.5 22:03:10 21° SW 22:05:32 52° SE 22:09:21 10° ENE
Aureole 3 3.3 22:03:22 10° N 22:06:17 40° ENE 22:06:42 38° E
SL-4 R/B 3.4 22:07:36 12° ENE 22:07:36 12° ENE 22:08:15 10° NE
FALCON 9 DEB 3.2 22:04:17 10° WSW 22:07:43 78° NNW 22:11:09 10° ENE
Cosmos 1758 4.1 22:04:33 10° NNW 22:08:28 45° W 22:10:28 25° SSW
Cosmos 1626 4.3 22:08:17 13° E 22:08:43 14° E 22:10:39 10° NE
STARLINK-1245 3.5 22:04:37 10° WNW 22:08:47 81° SSW 22:10:36 32° SE
STARLINK-1329 3.4 22:06:16 19° SW 22:08:48 55° SE 22:12:37 10° ENE
Cosmos 1174 3.6 22:06:48 22° SW 22:08:49 74° NW 22:12:41 10° NNE
SeaSat 1 3.3 22:05:28 10° NE 22:09:51 31° ESE 22:11:04 28° SE
ATLAS CENTAUR R/B 1.8 22:05:55 10° SW 22:10:15 63° NW 22:14:20 10° NNE
Cosmos 1707 3.1 22:08:17 26° SSW 22:10:18 62° W 22:14:10 10° N
COSMOS 2487 2.7 22:09:30 10° NNW 22:12:54 57° WSW 22:13:45 42° SSW
STARLINK-1233 3.5 22:09:35 10° WNW 22:13:44 76° SSW 22:15:21 36° SE
STARLINK-1362 3.4 22:11:07 16° SW 22:14:05 60° SSE 22:17:57 10° ENE
STARLINK-1143 4.5 22:11:51 10° WNW 22:15:53 49° NNE 22:19:55 10° E
STARLINK-1373 3.4 22:15:16 15° SW 22:18:24 64° SSE 22:22:19 10° ENE
Cosmos 1536 Rocket 3.9 22:16:14 24° SSW 22:18:42 62° WNW 22:23:04 10° N
STARLINK-1204 3.5 22:14:34 10° WNW 22:18:42 71° SSW 22:20:08 39° SE
EO 1 Del DPAF 3.2 22:15:05 10° NNE 22:18:51 65° ESE 22:19:51 44° SSE
STARLINK-1241 4.4 22:16:51 10° WNW 22:20:54 51° NNE 22:24:57 10° E
STARLINK-1390 3.3 22:18:23 17° SW 22:21:16 67° SSE 22:25:06 10° ENE
NOSS 3-4 (A) 3.8 22:15:29 10° SW 22:21:25 66° NW 22:27:49 10° NE
NOSS 3-4 (C) 3.8 22:15:35 10° SW 22:21:30 66° NW 22:27:55 10° NE
STARLINK-1238 3.6 22:19:33 10° WNW 22:23:40 67° SSW 22:24:55 42° SSE
Meteor 1-16 Rocket 4.1 22:20:01 10° NNW 22:25:30 80° W 22:28:05 32° S
Cosmos 1656 Rocket 4.4 22:20:21 10° SW 22:25:49 52° WNW 22:31:15 10° NNE
STARLINK-1239 4.3 22:21:49 10° WNW 22:25:54 53° NNE 22:29:47 11° E
STARLINK-1365 3.3 22:22:31 10° SW 22:26:29 74° SSE 22:30:27 10° ENE
Cosmos 2266 Rocket 3.9 22:24:05 27° S 22:27:37 87° E 22:33:41 10° N
Cosmos 2084 3.4 22:26:11 28° SSW 22:28:30 75° SE 22:32:59 10° NE
STARLINK-1201 3.6 22:24:33 10° WNW 22:28:39 62° SW 22:29:42 44° SSE
Cosmos 1655 Rocket 4.2 22:25:20 21° SSW 22:29:41 69° WNW 22:35:58 10° N
STARLINK-1240 4.3 22:26:47 10° WNW 22:30:52 55° NNE 22:34:32 13° E
ERBS 4.5 22:29:41 10° NW 22:32:30 25° NNE 22:35:20 10° ENE
STARLINK-1206 3.7 22:29:32 10° WNW 22:33:37 57° SW 22:34:29 46° SSE
STARLINK-1216 4.2 22:31:47 10° WNW 22:35:54 58° NNE 22:39:20 14° E
Cosmos 2369 Rocket 4.2 22:32:05 10° WSW 22:36:50 27° NW 22:41:36 10° N
STARLINK-1205 3.8 22:34:31 10° WNW 22:38:34 53° SW 22:39:15 47° S
Cosmos 2227 Rocket 3.3 22:33:56 10° NNW 22:39:16 39° NE 22:43:18 16° ESE
STARLINK-1237 4.1 22:36:45 10° WNW 22:40:51 60° NNE 22:44:05 16° E
STARLINK-1338 3.2 22:37:51 13° WSW 22:41:13 89° SSE 22:45:00 10° ENE
STARLINK-1218 3.8 22:39:32 10° WNW 22:43:34 49° SW 22:44:03 46° SSW
Spot 4 4.0 22:42:23 36° S 22:44:19 68° WSW 22:49:10 10° NNW
Cosmos 2292 Rocket 3.2 22:44:12 44° SW 22:44:52 54° W 22:47:51 10° N
SL-14 R/B 4.1 22:44:57 32° ESE 22:45:28 33° E 22:48:58 10° NNE
STARLINK-1202 4.0 22:41:44 10° WNW 22:45:51 63° NNE 22:48:52 18° E
STARLINK-1254 3.9 22:44:31 10° WNW 22:48:30 46° SW 22:48:49 44° SSW
Cosmos 1908 3.2 22:45:06 10° NNW 22:48:55 72° W 22:49:45 51° SSW
STARLINK-1203 4.0 22:44:48 10° WNW 22:49:00 66° NNE 22:52:00 18° ESE
Cosmos 2058 Rocket 3.5 22:44:57 10° N 22:49:20 53° ENE 22:50:50 36° SE
ATLAS 2AS CENTAUR R/B 3.8 22:42:04 10° WSW 22:49:53 54° NW 22:57:36 10° NE
Cosmos 1606 Rocket 3.5 22:45:56 10° NNW 22:50:17 80° W 22:51:37 44° S
Cosmos 2098 Rocket 4.4 22:45:55 27° S 22:50:19 89° E 22:57:45 10° N
STARLINK-1371 3.4 22:46:47 10° WSW 22:50:38 81° NNW 22:54:30 10° ENE
STARLINK-1231 4.0 22:49:30 10° WNW 22:53:26 42° SW 22:53:35 42° SSW
Meteor 2-5 Rocket 3.7 22:51:49 35° S 22:54:13 71° E 22:59:53 10° NNE
STARLINK-1341 3.5 22:50:49 10° WSW 22:54:40 78° NNW 22:58:32 10° ENE
ALOS 2 2.5 22:53:44 43° SSE 22:55:09 82° ENE 22:59:34 10° NNW
STARLINK-1246 3.8 22:51:42 10° WNW 22:55:51 70° NNE 22:58:27 22° ESE
KORONAS-FOTON 3.9 22:56:12 45° SW 22:57:13 67° W 23:01:05 10° N
STARLINK-1232 4.2 22:54:33 10° WNW 22:58:24 39° SW 22:58:24 39° SW
STARLINK-1374 3.5 22:54:44 10° WSW 22:58:35 74° NNW 23:02:26 10° ENE
CZ-4C R/B 3.1 22:59:36 26° SE 23:00:19 27° ESE 23:05:02 10° ENE
STARLINK-1224 3.7 22:56:42 10° WNW 23:00:51 74° NNE 23:03:14 24° ESE
STARLINK-1339 3.6 22:58:44 10° WSW 23:02:34 71° NNW 23:06:24 10° ENE
STARLINK-1208 4.3 22:59:32 10° WNW 23:03:09 36° SW 23:03:09 36° SW
Cosmos 1300 3.0 23:00:30 10° N 23:04:16 54° ENE 23:05:03 45° ESE
STARLINK-1225 3.7 23:01:40 10° WNW 23:05:50 78° NNE 23:08:01 27° ESE
STARLINK-1271 4.5 23:04:35 10° WNW 23:07:58 33° SW 23:07:58 33° SW
Helios 1B rocket 4.2 23:05:35 10° NE 23:08:35 19° E 23:09:18 18° ESE
STARLINK-1377 3.8 23:05:05 10° WSW 23:08:59 66° NNW 23:12:55 10° ENE
Nimbus 7 Rocket 4.4 23:03:35 10° NNE 23:09:42 87° WNW 23:12:50 31° SSW
Cosmos 1726 4.2 23:08:02 10° NW 23:10:39 18° W 23:11:43 16° WSW
STARLINK-1230 3.6 23:06:38 10° WNW 23:10:48 82° NNE 23:12:46 30° ESE
COSMOS 2455 4.0 23:06:34 10° WSW 23:12:16 42° NW 23:17:59 10° NNE
Cosmos 1674 3.6 23:11:24 31° WSW 23:12:34 40° WNW 23:16:11 10° N
STARLINK-1353 3.9 23:09:14 10° WSW 23:13:09 63° NNW 23:17:04 10° ENE
STARLINK-1320 4.0 23:12:02 10° W 23:15:03 45° NNW 23:18:04 10° ENE
STARLINK-1375 3.9 23:11:31 10° WSW 23:15:20 61° NNW 23:19:11 10° ENE
STARLINK-1322 4.0 23:12:20 10° W 23:15:21 44° NNW 23:18:22 10° ENE
STARLINK-1324 4.0 23:12:44 10° W 23:15:43 44° NNW 23:18:45 10° ENE
STARLINK-1243 3.5 23:11:38 10° WNW 23:15:48 87° NNE 23:17:35 33° ESE
STARLINK-1294 4.0 23:13:00 10° W 23:16:01 44° NNW 23:19:02 10° ENE
STARLINK-1261 4.0 23:13:22 10° W 23:16:24 44° NNW 23:19:25 10° ENE
STARLINK-1325 4.0 23:13:43 10° W 23:16:45 44° NNW 23:19:45 10° ENE
STARLINK-1333 4.0 23:14:05 10° W 23:17:05 44° NNW 23:20:07 10° ENE
Cosmos 2228 3.7 23:13:17 10° NNW 23:17:18 41° W 23:18:24 34° SW
STARLINK-1334 4.0 23:14:25 10° W 23:17:25 43° NNW 23:20:26 10° ENE
STARLINK-1326 4.0 23:14:45 10° W 23:17:46 43° NNW 23:20:47 10° ENE
Meteor 2-14 Rocket 4.4 23:15:15 34° S 23:18:05 83° E 23:24:16 10° N
STARLINK-1323 4.1 23:15:05 10° W 23:18:06 43° NNW 23:21:07 10° ENE
STARLINK-1349 4.1 23:15:25 10° W 23:18:25 43° NNW 23:21:26 10° ENE
STARLINK-1336 4.1 23:15:45 10° W 23:18:46 43° NNW 23:21:46 10° ENE
STARLINK-1331 4.1 23:16:07 10° W 23:19:07 43° NNW 23:22:08 10° ENE
STARLINK-1344 4.1 23:16:27 10° W 23:19:26 43° NNW 23:22:27 10° ENE
Cosmos 921 Rocket 3.1 23:18:04 41° SW 23:19:28 74° WNW 23:23:53 10° NNE
STARLINK-1343 4.1 23:16:47 10° W 23:19:47 42° NNW 23:22:47 10° ENE
STARLINK-1346 4.1 23:17:06 10° W 23:20:06 43° NNW 23:23:09 10° ENE
STARLINK-1328 4.1 23:17:27 10° W 23:20:26 42° NNW 23:23:26 10° ENE
STARLINK-1236 3.5 23:16:37 10° WNW 23:20:46 88° SSW 23:22:21 37° ESE
STARLINK-1354 4.1 23:17:49 10° W 23:20:49 42° NNW 23:23:48 10° ENE
Meteor 2-21 Rocket 4.5 23:18:06 34° S 23:20:54 74° E 23:27:07 10° NNE
STARLINK-1347 4.1 23:18:08 10° W 23:21:08 42° NNW 23:24:08 10° ENE
STARLINK-1350 4.0 23:17:34 10° W 23:21:29 58° NNW 23:25:23 10° ENE
STARLINK-1357 4.1 23:18:30 10° W 23:21:30 42° NNW 23:24:30 10° ENE
Cosmos 220 Rocket 4.1 23:20:04 41° SW 23:21:34 77° WNW 23:26:03 10° NNE
STARLINK-1335 4.1 23:18:47 10° W 23:21:47 42° NNW 23:24:46 10° ENE
Cosmos 1437 2.7 23:22:12 65° ENE 23:22:12 65° ENE 23:24:57 10° NNE
STARLINK-1327 4.1 23:19:11 10° W 23:22:10 41° NNW 23:25:10 10° ENE
STARLINK-1340 4.2 23:19:32 10° W 23:22:32 41° NNW 23:25:31 10° ENE
STARLINK-1356 4.2 23:19:52 10° W 23:22:51 41° NNW 23:25:51 10° ENE
Timation 2 Rocket 4.5 23:17:12 10° NW 23:23:03 43° WSW 23:25:18 31° SSW
STARLINK-1345 4.2 23:20:12 10° W 23:23:11 41° NNW 23:26:11 10° ENE
STARLINK-1355 4.2 23:20:32 10° W 23:23:31 41° NNW 23:26:30 10° ENE
RESURS DK-1 3.8 23:20:55 17° WSW 23:23:39 35° NW 23:27:29 10° NNE
STARLINK-1321 4.2 23:20:52 10° W 23:23:51 41° NNW 23:26:50 10° ENE
STARLINK-1358 4.2 23:21:14 10° W 23:24:13 41° NNW 23:27:13 10° ENE
STARLINK-1332 4.2 23:21:32 10° W 23:24:31 41° NNW 23:27:31 10° ENE
Lacrosse 4 Rocket 2.4 23:20:33 10° NNW 23:24:43 44° NE 23:26:58 23° ESE
STARLINK-1348 4.2 23:21:53 10° W 23:24:51 40° NNW 23:27:51 10° ENE
STARLINK-1330 4.2 23:22:14 10° W 23:25:13 40° NNW 23:28:11 10° ENE
STARLINK-1363 4.2 23:22:34 10° W 23:25:31 40° NNW 23:28:31 10° ENE
STARLINK-1352 4.1 23:21:49 10° W 23:25:42 56° NNW 23:29:36 10° ENE
STARLINK-1337 4.2 23:22:54 10° W 23:25:53 40° NNW 23:28:52 10° NE
STARLINK-1342 4.2 23:23:16 10° W 23:26:15 40° NNW 23:29:14 10° ENE
STARLINK-1364 4.2 23:23:36 10° W 23:26:35 40° NNW 23:29:34 10° ENE
STARLINK-1376 4.2 23:23:57 10° W 23:26:55 40° NNW 23:29:54 10° ENE
STARLINK-1360 4.2 23:24:17 10° W 23:27:15 40° NNW 23:30:14 10° ENE
Cosmos 1980 Rocket 3.9 23:25:34 16° ESE 23:27:16 18° E 23:31:01 10° ENE
Okean 1-7 Rocket 3.7 23:25:56 43° SSW 23:27:21 75° W 23:31:56 10° N
BREEZE-M R/B 3.5 23:19:07 10° WSW 23:27:31 75° SSE 23:31:30 10° ENE
STARLINK-1361 4.3 23:24:37 10° W 23:27:36 39° NNW 23:30:35 10° NE
STARLINK-1367 4.3 23:24:56 10° W 23:27:55 40° NNW 23:30:56 10° ENE
STARLINK-1366 4.3 23:25:18 10° W 23:28:17 39° NNW 23:31:15 10° NE
STARLINK-1368 4.2 23:26:03 10° W 23:29:56 54° NNW 23:33:50 10° ENE
STARLINK-1269 3.5 23:26:35 10° WNW 23:30:44 78° SSW 23:31:55 45° SE
USA 215 3.3 23:27:19 10° ESE 23:33:53 84° NE 23:40:29 10° NW
STARLINK-1369 4.3 23:30:19 10° W 23:34:11 52° NNW 23:38:04 10° ENE
CZ-4 R/B 4.4 23:31:07 10° NNE 23:35:37 42° E 23:36:58 34° SE
STARLINK-1200 3.5 23:31:34 10° WNW 23:35:42 73° SSW 23:36:42 49° SE
Cosmos 1892 Rocket 4.1 23:34:23 34° SW 23:35:52 49° WNW 23:40:07 10° N
SL-4 R/B 3.7 23:37:22 11° WNW 23:37:22 11° WNW 23:37:33 10° NW
STARLINK-1372 4.4 23:34:34 10° W 23:38:27 50° NNW 23:42:19 10° ENE
Meteor 1-24 Rocket 3.8 23:36:45 33° SSW 23:39:09 67° WNW 23:44:43 10° N
Helios 1A 3.1 23:38:21 49° SSW 23:39:15 64° WSW 23:43:26 10° NNW
ATLAS 5 CENTAUR R/B 3.6 23:38:09 10° W 23:40:19 18° NW 23:41:54 10° N
Cosmos 1455 3.6 23:37:06 10° N 23:40:26 29° ENE 23:41:41 24° ESE
STARLINK-1192 3.5 23:36:33 10° WNW 23:40:41 68° SSW 23:41:28 53° SSE
SL-4 R/B 3.2 23:36:02 10° WNW 23:40:48 53° N 23:45:31 10° E
STARLINK-1378 4.4 23:37:09 10° W 23:40:56 49° NNW 23:44:44 10° ENE
Cosmos 2263 Rocket 4.4 23:38:32 10° N 23:42:51 22° NE 23:47:09 10° E
Cosmos 1626 2.7 23:42:49 40° WSW 23:43:33 46° WNW 23:47:10 10° N
SJ 16-02 1.3 23:39:12 10° NNW 23:43:40 89° NE 23:44:59 46° SSE
STARLINK-1379 4.4 23:40:24 10° W 23:44:09 47° NNW 23:47:55 10° ENE
STARLINK-1244 3.5 23:41:31 10° WNW 23:45:37 63° SSW 23:46:14 55° S
Cosmos 2297 Rocket 2.2 23:40:15 10° NNW 23:45:52 65° WSW 23:48:02 37° S
SL-16 R/B 4.4 23:41:12 10° ESE 23:46:03 25° ENE 23:50:56 10° N
STARLINK-1329 4.5 23:43:42 10° W 23:47:27 46° NNW 23:51:13 10° ENE
SeaSat 1 3.3 23:42:47 10° NNE 23:47:29 45° NW 23:50:50 18° WSW
Cosmos 2219 3.5 23:42:38 10° NW 23:48:06 52° WSW 23:50:00 36° SSW
ATLAS 3B R/B 4.1 23:44:36 10° WNW 23:49:22 20° WSW 23:51:18 18° SW
ATLAS CENTAUR R/B 4.3 23:47:33 10° WNW 23:49:53 14° NNW 23:52:10 10° N
NOSS 7 (H) 4.3 23:50:39 63° E 23:50:39 63° E 23:53:17 10° NE
STARLINK-1138 3.6 23:46:30 10° WNW 23:50:35 59° SW 23:51:00 55° S
Cosmos 1656 3.6 23:48:16 35° SSW 23:50:44 86° ESE 23:56:22 10° NNE
Cosmos 468 Rocket 3.9 23:52:35 40° S 23:54:23 71° ESE 23:59:30 10° NNE
STARLINK-1143 3.6 23:51:30 10° WNW 23:55:33 55° SW 23:55:48 54° SSW
Alouette 2 Rocket 4.5 23:51:21 10° N 23:56:08 43° ENE 23:57:57 26° ESE
